Time,TemperatureF,DewpointF,PressureIn,WindDirection,WindDirectionDegrees,WindSpeedMPH,WindSpeedGustMPH,Humidity,HourlyPrecipIn,Conditions,Clouds,dailyrainin,SolarRadiationWatts/m^2,SoftwareType,DateUTC
2013-02-05 00:21:00,54.0,52.0,-100.00,ENE,75,1.0,4.0,94,0.06,,,0.14,0.000000,,2013-02-05 06:21:00,
2013-02-05 00:32:00,54.0,52.0,-100.00,ENE,75,1.0,4.0,94,0.06,,,0.14,0.000000,,2013-02-05 06:32:00,
2013-02-05 00:42:00,54.0,52.0,-100.00,ENE,75,1.0,4.0,94,0.06,,,0.14,0.000000,,2013-02-05 06:42:00,
2013-02-05 00:50:00,55.0,54.0,-100.00,ENE,74,4.0,7.0,95,0.14,,,0.28,0.000000,,2013-02-05 06:50:00,
2013-02-05 01:11:00,55.0,54.0,-100.00,ENE,74,4.0,7.0,95,0.14,,,0.28,0.000000,,2013-02-05 07:11:00,
2013-02-05 01:22:00,55.0,54.0,-100.00,ENE,74,4.0,7.0,95,0.14,,,0.28,0.000000,,2013-02-05 07:22:00,
2013-02-05 01:32:00,55.0,54.0,-100.00,ENE,74,4.0,7.0,95,0.14,,,0.28,0.000000,,2013-02-05 07:32:00,
2013-02-05 01:41:00,55.0,54.0,-100.00,ENE,74,4.0,7.0,95,0.14,,,0.28,0.000000,,2013-02-05 07:41:00,
2013-02-05 01:50:00,56.0,55.0,-100.00,ESE,102,6.0,9.0,95,0.05,,,0.33,0.000000,,2013-02-05 07:50:00,
2013-02-05 02:11:00,56.0,55.0,-100.00,ESE,102,6.0,9.0,95,0.05,,,0.33,0.000000,,2013-02-05 08:11:00,
2013-02-05 02:21:00,56.0,55.0,-100.00,ESE,102,6.0,9.0,95,0.05,,,0.33,0.000000,,2013-02-05 08:21:00,
2013-02-05 02:31:00,56.0,55.0,-100.00,ESE,102,6.0,9.0,95,0.05,,,0.33,0.000000,,2013-02-05 08:31:00,
2013-02-05 02:41:00,56.0,55.0,-100.00,ESE,102,6.0,9.0,95,0.05,,,0.33,0.000000,,2013-02-05 08:41:00,
2013-02-05 02:50:00,56.0,55.0,-100.00,East,87,7.0,10.0,95,0.01,,,0.34,0.000000,,2013-02-05 08:50:00,
2013-02-05 03:11:00,56.0,55.0,-100.00,East,87,7.0,10.0,95,0.01,,,0.34,0.000000,,2013-02-05 09:11:00,
2013-02-05 03:21:00,56.0,55.0,-100.00,East,87,7.0,10.0,95,0.01,,,0.34,0.000000,,2013-02-05 09:21:00,
2013-02-05 03:32:00,56.0,55.0,-100.00,East,87,7.0,10.0,95,0.01,,,0.34,0.000000,,2013-02-05 09:32:00,
2013-02-05 03:42:00,56.0,55.0,-100.00,East,87,7.0,10.0,95,0.01,,,0.34,0.000000,,2013-02-05 09:42:00,
2013-02-05 03:50:00,56.0,54.0,-100.00,NE,55,3.0,10.0,94,0.00,,,0.34,0.000000,,2013-02-05 09:50:00,
2013-02-05 04:11:00,56.0,54.0,-100.00,NE,55,3.0,10.0,94,0.00,,,0.34,0.000000,,2013-02-05 10:11:00,
2013-02-05 04:21:00,56.0,54.0,-100.00,NE,55,3.0,10.0,94,0.00,,,0.34,0.000000,,2013-02-05 10:21:00,
2013-02-05 04:32:00,56.0,54.0,-100.00,NE,55,3.0,10.0,94,0.00,,,0.34,0.000000,,2013-02-05 10:32:00,
2013-02-05 04:42:00,56.0,54.0,-100.00,NE,55,3.0,10.0,94,0.00,,,0.34,0.000000,,2013-02-05 10:42:00,
2013-02-05 04:50:00,56.0,54.0,-100.00,NE,53,3.0,6.0,94,0.00,,,0.34,0.000000,,2013-02-05 10:50:00,
2013-02-05 05:11:00,56.0,54.0,-100.00,NE,53,3.0,6.0,94,0.00,,,0.34,0.000000,,2013-02-05 11:11:00,
2013-02-05 05:22:00,56.0,54.0,-100.00,NE,53,3.0,6.0,94,0.00,,,0.34,0.000000,,2013-02-05 11:22:00,
2013-02-05 05:32:00,56.0,54.0,-100.00,NE,53,3.0,6.0,94,0.00,,,0.34,0.000000,,2013-02-05 11:32:00,
2013-02-05 05:42:00,56.0,54.0,-100.00,NE,53,3.0,6.0,94,0.00,,,0.34,0.000000,,2013-02-05 11:42:00,
2013-02-05 05:50:00,56.0,54.0,-100.00,North,354,2.0,4.0,94,0.00,,,0.34,0.000000,,2013-02-05 11:50:00,
2013-02-05 06:12:00,56.0,54.0,-100.00,North,354,2.0,4.0,94,0.00,,,0.34,0.000000,,2013-02-05 12:12:00,
2013-02-05 06:22:00,56.0,54.0,-100.00,North,354,2.0,4.0,94,0.00,,,0.34,0.000000,,2013-02-05 12:22:00,
2013-02-05 06:32:00,56.0,54.0,-100.00,North,354,2.0,4.0,94,0.00,,,0.34,0.000000,,2013-02-05 12:32:00,
2013-02-05 06:42:00,56.0,54.0,-100.00,North,354,2.0,4.0,94,0.00,,,0.34,0.000000,,2013-02-05 12:42:00,
2013-02-05 06:50:00,56.0,54.0,-100.00,NNE,33,2.0,6.0,94,0.01,,,-99.99,0.000000,,2013-02-05 12:50:00,
2013-02-05 07:12:00,56.0,54.0,-100.00,NNE,33,2.0,6.0,94,0.01,,,-99.99,0.000000,,2013-02-05 13:12:00,
2013-02-05 07:22:00,56.0,54.0,-100.00,NNE,33,2.0,6.0,94,0.01,,,-99.99,0.000000,,2013-02-05 13:22:00,
2013-02-05 07:32:00,56.0,54.0,-100.00,NNE,33,2.0,6.0,94,0.01,,,-99.99,0.000000,,2013-02-05 13:32:00,
2013-02-05 07:42:00,56.0,54.0,-100.00,NNE,33,2.0,6.0,94,0.01,,,-99.99,0.000000,,2013-02-05 13:42:00,
2013-02-05 07:50:00,57.0,56.0,-100.00,ENE,69,3.0,5.0,95,0.00,,,-99.99,12.000000,,2013-02-05 13:50:00,
2013-02-05 08:12:00,57.0,56.0,-100.00,ENE,69,3.0,5.0,95,0.00,,,-99.99,12.000000,,2013-02-05 14:12:00,
2013-02-05 08:21:00,57.0,56.0,-100.00,ENE,69,3.0,5.0,95,0.00,,,-99.99,12.000000,,2013-02-05 14:21:00,
2013-02-05 08:32:00,57.0,56.0,-100.00,ENE,69,3.0,5.0,95,0.00,,,-99.99,12.000000,,2013-02-05 14:32:00,
2013-02-05 08:42:00,57.0,56.0,-100.00,ENE,69,3.0,5.0,95,0.00,,,-99.99,12.000000,,2013-02-05 14:42:00,
2013-02-05 08:50:00,60.0,58.0,-100.00,East,88,4.0,8.0,94,0.00,,,0.35,163.000000,,2013-02-05 14:50:00,
2013-02-05 09:21:00,60.0,58.0,-100.00,East,88,4.0,8.0,94,0.00,,,0.35,163.000000,,2013-02-05 15:21:00,
2013-02-05 09:32:00,60.0,58.0,-100.00,East,88,4.0,8.0,94,0.00,,,0.35,163.000000,,2013-02-05 15:32:00,
2013-02-05 09:41:00,60.0,58.0,-100.00,East,88,4.0,8.0,94,0.00,,,0.35,163.000000,,2013-02-05 15:41:00,
2013-02-05 09:50:00,62.0,58.0,-100.00,East,85,8.0,14.0,87,0.00,,,-99.99,268.000000,,2013-02-05 15:50:00,
2013-02-05 10:22:00,62.0,58.0,-100.00,East,85,8.0,14.0,87,0.00,,,-99.99,268.000000,,2013-02-05 16:22:00,
2013-02-05 10:32:00,62.0,58.0,-100.00,East,85,8.0,14.0,87,0.00,,,-99.99,268.000000,,2013-02-05 16:32:00,
2013-02-05 10:42:00,62.0,58.0,-100.00,East,85,8.0,14.0,87,0.00,,,-99.99,268.000000,,2013-02-05 16:42:00,
2013-02-05 10:50:00,63.0,59.0,-100.00,ENE,66,4.0,12.0,86,0.00,,,-99.99,139.000000,,2013-02-05 16:50:00,
2013-02-05 11:22:00,63.0,59.0,-100.00,ENE,66,4.0,12.0,86,0.00,,,-99.99,139.000000,,2013-02-05 17:22:00,
2013-02-05 11:32:00,63.0,59.0,-100.00,ENE,66,4.0,12.0,86,0.00,,,-99.99,139.000000,,2013-02-05 17:32:00,
2013-02-05 11:42:00,63.0,59.0,-100.00,ENE,66,4.0,12.0,86,0.00,,,-99.99,139.000000,,2013-02-05 17:42:00,
2013-02-05 11:50:00,64.0,59.0,-100.00,ENE,74,4.0,8.0,83,0.00,,,0.35,223.000000,,2013-02-05 17:50:00,
2013-02-05 12:11:00,64.0,59.0,-100.00,ENE,74,4.0,8.0,83,0.00,,,0.35,223.000000,,2013-02-05 18:11:00,
2013-02-05 12:22:00,64.0,59.0,-100.00,ENE,74,4.0,8.0,83,0.00,,,0.35,223.000000,,2013-02-05 18:22:00,
2013-02-05 12:32:00,64.0,59.0,-100.00,ENE,74,4.0,8.0,83,0.00,,,0.35,223.000000,,2013-02-05 18:32:00,
2013-02-05 12:42:00,64.0,59.0,-100.00,ENE,74,4.0,8.0,83,0.00,,,0.35,223.000000,,2013-02-05 18:42:00,
2013-02-05 12:50:00,65.0,59.0,-100.00,NE,56,5.0,8.0,81,0.00,,,0.35,176.000000,,2013-02-05 18:50:00,
2013-02-05 13:21:00,65.0,59.0,-100.00,NE,56,5.0,8.0,81,0.00,,,0.35,176.000000,,2013-02-05 19:21:00,
2013-02-05 13:32:00,65.0,59.0,-100.00,NE,56,5.0,8.0,81,0.00,,,0.35,176.000000,,2013-02-05 19:32:00,
2013-02-05 13:42:00,65.0,59.0,-100.00,NE,56,5.0,8.0,81,0.00,,,0.35,176.000000,,2013-02-05 19:42:00,
2013-02-05 13:50:00,65.0,59.0,-100.00,NNE,12,2.0,11.0,80,0.00,,,0.35,162.000000,,2013-02-05 19:50:00,
2013-02-05 14:11:00,65.0,59.0,-100.00,NNE,12,2.0,11.0,80,0.00,,,0.35,162.000000,,2013-02-05 20:11:00,
2013-02-05 14:21:00,65.0,59.0,-100.00,NNE,12,2.0,11.0,80,0.00,,,0.35,162.000000,,2013-02-05 20:21:00,
2013-02-05 14:32:00,65.0,59.0,-100.00,NNE,12,2.0,11.0,80,0.00,,,0.35,162.000000,,2013-02-05 20:32:00,
2013-02-05 14:42:00,65.0,59.0,-100.00,NNE,12,2.0,11.0,80,0.00,,,0.35,162.000000,,2013-02-05 20:42:00,
2013-02-05 14:50:00,69.0,58.0,-100.00,NNE,19,3.0,8.0,68,0.00,,,0.35,384.000000,,2013-02-05 20:50:00,
2013-02-05 15:22:00,69.0,58.0,-100.00,NNE,19,3.0,8.0,68,0.00,,,0.35,384.000000,,2013-02-05 21:22:00,
2013-02-05 15:32:00,69.0,58.0,-100.00,NNE,19,3.0,8.0,68,0.00,,,0.35,384.000000,,2013-02-05 21:32:00,
2013-02-05 15:42:00,69.0,58.0,-100.00,NNE,19,3.0,8.0,68,0.00,,,0.35,384.000000,,2013-02-05 21:42:00,
2013-02-05 15:50:00,67.0,58.0,-100.00,North,8,4.0,8.0,72,0.00,,,0.35,200.000000,,2013-02-05 21:50:00,
2013-02-05 16:11:00,67.0,58.0,-100.00,North,8,4.0,8.0,72,0.00,,,0.35,200.000000,,2013-02-05 22:11:00,
2013-02-05 16:22:00,67.0,58.0,-100.00,North,8,4.0,8.0,72,0.00,,,0.35,200.000000,,2013-02-05 22:22:00,
2013-02-05 16:32:00,67.0,58.0,-100.00,North,8,4.0,8.0,72,0.00,,,0.35,200.000000,,2013-02-05 22:32:00,
2013-02-05 16:42:00,67.0,58.0,-100.00,North,8,4.0,8.0,72,0.00,,,0.35,200.000000,,2013-02-05 22:42:00,
2013-02-05 16:50:00,66.0,58.0,-100.00,NNE,25,2.0,7.0,76,0.00,,,0.35,89.000000,,2013-02-05 22:50:00,
2013-02-05 17:11:00,66.0,58.0,-100.00,NNE,25,2.0,7.0,76,0.00,,,0.35,89.000000,,2013-02-05 23:11:00,
2013-02-05 17:22:00,66.0,58.0,-100.00,NNE,25,2.0,7.0,76,0.00,,,0.35,89.000000,,2013-02-05 23:22:00,
2013-02-05 17:32:00,66.0,58.0,-100.00,NNE,25,2.0,7.0,76,0.00,,,0.35,89.000000,,2013-02-05 23:32:00,
2013-02-05 17:42:00,66.0,58.0,-100.00,NNE,25,2.0,7.0,76,0.00,,,0.35,89.000000,,2013-02-05 23:42:00,
2013-02-05 17:50:00,63.0,58.0,-100.00,South,169,0.0,3.0,85,0.00,,,0.35,21.000000,,2013-02-05 23:50:00,
2013-02-05 18:12:00,63.0,58.0,-100.00,South,169,0.0,3.0,85,0.00,,,0.35,21.000000,,2013-02-06 00:12:00,
2013-02-05 18:22:00,63.0,58.0,-100.00,South,169,0.0,3.0,85,0.00,,,0.35,21.000000,,2013-02-06 00:22:00,
2013-02-05 18:32:00,63.0,58.0,-100.00,South,169,0.0,3.0,85,0.00,,,0.35,21.000000,,2013-02-06 00:32:00,
2013-02-05 18:42:00,63.0,58.0,-100.00,South,169,0.0,3.0,85,0.00,,,0.35,21.000000,,2013-02-06 00:42:00,
2013-02-05 18:50:00,60.0,57.0,-100.00,SW,221,0.0,2.0,91,0.00,,,0.33,0.000000,,2013-02-06 00:50:00,
2013-02-05 19:12:00,60.0,57.0,-100.00,SW,221,0.0,2.0,91,0.00,,,0.33,0.000000,,2013-02-06 01:12:00,
2013-02-05 19:22:00,60.0,57.0,-100.00,SW,221,0.0,2.0,91,0.00,,,0.33,0.000000,,2013-02-06 01:22:00,
2013-02-05 19:32:00,60.0,57.0,-100.00,SW,221,0.0,2.0,91,0.00,,,0.33,0.000000,,2013-02-06 01:32:00,
2013-02-05 19:42:00,60.0,57.0,-100.00,SW,221,0.0,2.0,91,0.00,,,0.33,0.000000,,2013-02-06 01:42:00,
2013-02-05 19:50:00,58.0,56.0,-100.00,WSW,256,1.0,3.0,94,0.00,,,0.32,0.000000,,2013-02-06 01:50:00,
2013-02-05 20:11:00,58.0,56.0,-100.00,WSW,256,1.0,3.0,94,0.00,,,0.32,0.000000,,2013-02-06 02:11:00,
2013-02-05 20:22:00,58.0,56.0,-100.00,WSW,256,1.0,3.0,94,0.00,,,0.32,0.000000,,2013-02-06 02:22:00,
2013-02-05 20:32:00,58.0,56.0,-100.00,WSW,256,1.0,3.0,94,0.00,,,0.32,0.000000,,2013-02-06 02:32:00,
2013-02-05 20:42:00,58.0,56.0,-100.00,WSW,256,1.0,3.0,94,0.00,,,0.32,0.000000,,2013-02-06 02:42:00,
2013-02-05 20:50:00,57.0,56.0,-100.00,West,269,0.0,2.0,95,0.00,,,0.32,0.000000,,2013-02-06 02:50:00,
2013-02-05 21:12:00,57.0,56.0,-100.00,West,269,0.0,2.0,95,0.00,,,0.32,0.000000,,2013-02-06 03:12:00,
2013-02-05 21:22:00,57.0,56.0,-100.00,West,269,0.0,2.0,95,0.00,,,0.32,0.000000,,2013-02-06 03:22:00,
2013-02-05 21:32:00,57.0,56.0,-100.00,West,269,0.0,2.0,95,0.00,,,0.32,0.000000,,2013-02-06 03:32:00,
2013-02-05 21:42:00,57.0,56.0,-100.00,West,269,0.0,2.0,95,0.00,,,0.32,0.000000,,2013-02-06 03:42:00,
2013-02-05 21:50:00,56.0,55.0,-100.00,West,266,2.0,3.0,95,0.00,,,0.30,0.000000,,2013-02-06 03:50:00,
2013-02-05 22:11:00,56.0,55.0,-100.00,West,266,2.0,3.0,95,0.00,,,0.30,0.000000,,2013-02-06 04:11:00,
2013-02-05 22:21:00,56.0,55.0,-100.00,West,266,2.0,3.0,95,0.00,,,0.30,0.000000,,2013-02-06 04:21:00,
2013-02-05 22:32:00,56.0,55.0,-100.00,West,266,2.0,3.0,95,0.00,,,0.30,0.000000,,2013-02-06 04:32:00,
2013-02-05 22:42:00,56.0,55.0,-100.00,West,266,2.0,3.0,95,0.00,,,0.30,0.000000,,2013-02-06 04:42:00,
2013-02-05 22:50:00,54.0,53.0,-100.00,NW,311,0.0,2.0,95,0.00,,,0.27,0.000000,,2013-02-06 04:50:00,
2013-02-05 23:22:00,54.0,53.0,-100.00,NW,311,0.0,2.0,95,0.00,,,0.27,0.000000,,2013-02-06 05:22:00,
2013-02-05 23:32:00,54.0,53.0,-100.00,NW,311,0.0,2.0,95,0.00,,,0.27,0.000000,,2013-02-06 05:32:00,
2013-02-05 23:41:00,54.0,53.0,-100.00,NW,311,0.0,2.0,95,0.00,,,0.27,0.000000,,2013-02-06 05:41:00,
2013-02-05 23:50:00,53.0,52.0,-100.00,ESE,102,0.0,2.0,96,0.00,,,-99.99,0.000000,,2013-02-06 05:50:00,